GFSSW_sfc_temp_117.txt.gz
Temp
62 61 61 60 60 59 59 59 58 58 58 58 58 59 59 59 59 77 74 72 74 67 67 83 83 83 84 81 82 83 69 67 71 72 75 83 76 83 85 80 83 84 83 87 90
62 62 62 61 60 59 59 58 58 58 58 58 58 58 59 58 66 74 67 68 66 67 77 78 77 80 78 77 79 74 69 71 79 77 74 77 78 79 78 78 78 81 87 88 89
62 62 62 61 60 60 59 58 58 58 58 58 58 58 58 61 69 76 67 66 66 70 82 83 81 78 74 78 76 74 67 75 77 78 76 74 74 79 74 71 78 77 80 84 84
61 61 61 61 60 60 59 58 57 58 58 58 58 58 59 69 62 78 66 67 67 77 81 78 77 72 71 71 78 69 74 75 76 77 74 71 76 72 75 75 81 82 83 81 80
60 60 60 61 60 59 58 58 57 57 57 58 58 58 67 68 72 77 67 69 78 79 77 76 73 73 68 73 74 70 72 75 76 74 72 73 69 70 72 80 83 84 79 79 80
59 59 59 60 60 59 58 57 57 56 57 57 57 56 67 60 81 81 80 79 80 78 78 78 74 77 71 70 70 74 72 72 74 73 72 68 69 71 75 80 78 78 79 79 80
59 59 58 59 59 58 58 57 56 56 56 57 57 64 63 67 82 83 78 79 82 80 76 78 78 73 74 68 74 70 64 69 72 73 71 71 63 65 76 78 74 76 79 79 81
59 58 57 58 57 56 56 56 56 56 56 57 57 65 59 79 82 78 81 78 81 81 79 79 79 73 71 73 69 65 66 59 72 69 71 66 58 73 76 74 74 76 77 78 80
59 58 57 56 55 55 55 55 55 56 57 57 59 63 62 69 71 79 80 75 78 78 78 77 75 69 70 62 60 65 57 60 65 71 67 66 61 71 75 73 71 74 75 77 78
58 58 56 55 54 53 54 54 58 55 60 67 68 57 68 67 74 76 80 78 73 73 70 68 68 63 64 61 51 58 60 64 61 68 68 63 63 70 74 74 71 73 75 75 76
58 58 56 54 53 53 52 55 55 58 62 63 67 66 69 74 75 74 77 73 73 70 60 67 60 56 62 65 65 62 58 57 63 69 64 62 62 67 72 73 72 73 74 75 73
58 56 55 54 53 52 54 48 61 62 58 68 66 68 71 73 63 71 77 66 65 59 65 62 54 63 67 65 61 58 55 56 62 67 62 60 60 66 70 71 73 72 71 68 67
57 56 54 53 53 52 54 56 68 67 57 63 69 66 68 69 61 66 71 68 63 59 61 58 62 65 60 59 56 56 54 55 55 60 63 59 57 63 71 69 70 67 65 65 63
56 54 53 52 49 53 51 65 67 65 45 57 58 62 65 65 58 73 75 67 63 57 60 59 66 60 59 55 58 51 61 58 54 51 46 60 44 57 64 66 65 63 60 60 60
55 53 52 55 52 50 62 67 65 62 33 60 58 72 67 61 62 62 72 66 57 59 58 54 58 55 53 56 60 53 59 54 53 50 49 50 45 54 63 61 60 56 55 56 58
54 53 53 51 54 56 62 61 55 39 34 53 60 56 57 61 61 64 62 67 66 59 61 58 63 59 58 60 58 59 54 52 51 47 36 47 48 51 53 48 51 52 53 53 54
53 53 54 58 47 59 58 53 35 35 57 52 52 57 57 54 56 58 56 54 53 45 47 55 56 60 57 53 58 53 47 37 35 37 36 53 49 51 51 51 48 48 50 51 51
53 52 53 53 55 57 51 40 30 50 52 56 55 55 51 56 54 54 54 52 57 53 49 42 39 55 58 52 51 52 49 38 28 32 39 53 42 49 53 54 52 49 49 47 46
51 46 46 48 51 52 42 32 42 51 58 52 53 49 50 53 51 51 51 52 56 56 44 43 44 54 53 56 53 48 43 51 38 40 35 42 50 52 50 48 47 44 45 41 42
45 43 42 49 50 45 37 37 48 58 58 57 47 52 48 50 46 48 49 54 51 53 53 47 36 52 53 53 53 48 53 37 38 24 26 39 44 34 31 35 39 38 40 39 39
46 37 43 49 49 39 35 46 53 60 59 54 52 51 51 50 50 49 48 51 51 50 53 51 43 44 47 44 43 46 40 42 43 38 30 29 30 33 29 31 33 38 41 38 37
42 33 44 48 34 36 41 49 51 56 58 54 54 54 50 51 47 47 45 49 54 53 43 50 41 36 42 52 53 50 46 44 32 32 36 36 33 36 33 35 36 36 38 41 38
35 34 43 44 33 39 49 50 53 53 53 52 50 53 54 49 42 47 46 51 50 49 45 47 39 30 36 42 47 41 45 47 43 39 32 27 31 37 35 36 35 34 37 37 37
36 30 33 35 38 46 45 45 47 56 54 54 52 53 49 46 49 43 45 46 49 49 45 46 38 33 31 33 42 37 41 43 41 32 35 35 29 29 30 31 33 32 33 34 34
38 36 44 30 32 42 46 48 46 45 54 54 49 49 46 41 44 42 46 44 44 45 45 43 33 35 37 41 42 39 38 40 33 37 29 32 29 28 29 30 30 31 31 31 31
36 43 49 49 43 40 42 45 46 48 47 46 45 47 48 44 46 41 44 42 38 45 42 46 32 33 30 41 40 35 37 38 34 33 29 30 27 31 33 33 31 29 29 28 29
47 56 53 46 42 40 43 47 48 48 49 51 47 47 46 49 52 53 54 51 48 42 40 38 33 31 29 39 35 29 30 32 31 32 33 29 30 33 30 30 27 29 29 27 28

GFSSW_sfc_temp_120.txt.gz
Temp
62 62 61 61 61 60 60 59 59 59 59 59 59 59 59 59 59 74 72 71 72 68 67 78 82 82 82 78 83 83 65 61 67 70 74 82 78 84 86 80 82 83 83 85 89
62 62 62 61 61 60 60 59 59 58 59 59 59 59 59 58 62 71 67 68 68 68 76 77 76 80 75 76 78 72 65 67 77 78 75 77 76 77 75 76 77 79 85 88 87
62 62 62 62 61 60 60 59 58 58 59 58 58 59 58 60 65 73 67 68 68 69 77 82 81 78 72 76 76 73 65 72 75 78 78 75 74 78 73 70 75 73 76 81 82
61 61 61 61 61 60 60 59 58 58 58 58 58 59 58 63 61 74 67 67 68 75 80 79 77 71 68 68 77 68 73 74 75 78 74 72 75 71 73 72 79 80 81 80 78
60 60 61 61 61 60 59 59 58 58 58 58 58 59 63 65 71 74 67 69 76 78 76 76 72 72 66 71 74 70 73 75 76 76 75 75 70 69 70 75 79 81 81 78 78
59 59 60 60 60 59 59 58 57 57 57 57 58 57 63 57 82 82 80 79 79 79 77 77 74 76 70 69 68 72 72 72 73 72 73 70 70 71 72 77 77 77 77 78 79
59 58 59 59 59 59 58 58 57 57 57 57 58 61 60 63 83 83 80 78 81 80 75 80 79 72 72 66 74 70 64 68 69 72 71 74 65 65 75 77 75 74 76 77 78
59 58 58 58 58 57 57 56 56 56 57 57 58 62 56 79 82 78 80 77 80 81 78 80 79 72 68 72 68 63 64 56 68 73 72 69 56 69 77 74 73 74 75 76 77
59 58 57 56 56 55 55 55 56 57 57 58 58 60 59 72 72 79 80 74 78 78 78 80 75 66 67 60 56 61 52 57 64 73 70 66 59 70 76 74 71 72 73 74 75
59 58 57 56 55 54 54 54 57 57 60 66 67 57 66 68 76 77 81 78 73 72 69 68 65 59 61 57 46 54 56 60 59 69 69 65 63 68 73 73 71 73 74 73 74
58 58 57 55 54 53 52 53 52 51 60 61 65 65 70 79 78 74 79 73 72 68 57 64 55 51 58 63 63 61 59 57 62 67 63 62 63 66 70 70 70 72 73 73 74
58 57 56 55 54 53 55 50 58 58 51 66 65 67 73 76 66 71 79 65 63 56 62 58 52 62 65 64 61 60 56 54 59 65 63 61 60 65 67 68 70 71 71 65 65
57 57 55 54 53 52 53 55 69 67 53 62 70 69 71 72 64 66 73 67 61 58 58 54 60 68 63 60 56 57 54 54 54 60 62 58 54 59 67 71 73 69 66 63 60
57 55 53 52 50 55 52 63 70 66 48 57 64 66 71 69 59 72 74 68 62 56 59 58 65 61 60 57 59 50 60 58 55 51 43 57 41 53 60 62 66 60 58 57 57
55 53 52 56 55 51 61 67 66 59 33 63 61 74 69 61 64 65 74 68 57 58 59 53 57 57 55 55 59 54 60 56 54 49 47 47 43 50 58 56 51 53 54 54 55
54 53 53 52 54 61 67 60 59 41 32 56 61 57 57 60 63 65 63 67 67 58 59 58 67 62 59 61 60 61 54 53 52 48 36 45 45 46 49 49 48 51 52 51 51
54 53 54 58 50 61 59 51 36 34 59 54 55 58 57 56 58 59 56 54 51 45 46 55 56 62 63 53 57 56 47 34 33 35 34 50 47 41 48 48 48 46 47 47 47
53 52 54 58 63 58 52 41 31 48 50 61 58 58 52 58 56 56 54 51 57 55 49 43 41 56 61 54 49 49 47 36 26 29 35 47 38 40 51 50 48 48 47 45 43
53 48 47 49 57 57 44 33 40 49 58 58 56 51 50 56 55 54 52 51 57 59 45 43 44 58 57 57 54 46 41 51 39 41 33 39 46 47 46 43 43 44 43 41 40
46 44 43 50 53 48 39 36 48 58 60 59 48 53 47 52 48 49 50 57 54 58 57 48 37 52 54 58 55 49 52 36 39 24 23 36 38 29 31 34 38 38 38 39 39
46 39 44 48 48 40 33 39 50 60 61 55 53 51 53 51 54 49 50 53 55 53 55 51 45 43 51 47 45 46 42 42 41 36 26 25 30 32 30 32 33 37 39 37 36
43 34 45 48 34 34 36 48 52 55 60 57 57 54 53 53 51 51 48 53 57 55 45 51 43 34 41 53 55 51 45 44 31 29 36 33 29 36 34 36 37 36 38 38 36
36 35 44 45 31 33 41 47 52 54 56 54 53 55 57 52 45 50 51 52 54 51 46 49 39 30 35 43 49 44 45 46 44 38 31 27 28 36 37 36 36 34 35 36 34
37 30 33 36 39 39 40 45 46 57 56 57 54 56 53 49 53 45 48 49 50 49 47 46 39 32 28 34 40 33 36 44 42 32 34 33 27 30 32 32 32 32 33 32 31
39 37 43 29 33 37 43 47 45 45 55 57 52 52 49 43 46 45 48 45 47 48 47 44 33 34 37 40 41 39 38 41 36 39 31 32 30 29 30 30 30 32 31 30 29
36 46 47 48 43 36 36 40 45 50 51 49 48 51 51 45 47 42 47 46 39 46 42 45 32 34 29 39 39 35 38 40 37 37 34 32 32 33 33 31 30 29 28 27 27
48 58 52 46 42 35 38 43 47 50 54 55 52 50 47 49 53 54 54 53 49 43 40 38 33 30 27 40 38 30 34 36 38 39 38 31 32 32 29 28 27 27 27 26 27

GFSSW_sfc_temp_123.txt.gz
Temp
62 62 62 61 61 61 60 60 59 59 59 59 59 59 60 59 58 64 62 63 65 68 67 71 72 72 69 64 65 62 49 45 52 56 61 72 69 71 74 70 75 78 75 78 79
62 62 62 62 61 60 60 59 59 58 59 59 59 59 59 58 57 61 67 67 67 68 68 68 68 69 60 61 61 56 47 51 62 62 60 67 62 66 67 67 68 71 74 78 78
62 62 62 62 61 60 60 59 58 59 59 59 59 59 58 57 58 65 67 67 68 68 71 71 74 70 59 59 60 56 51 61 66 66 67 61 64 66 62 60 66 65 70 75 73
61 61 61 61 61 60 59 59 58 59 58 58 59 59 58 58 54 62 67 67 68 68 70 70 68 61 57 55 62 54 63 65 65 68 65 62 65 63 64 64 69 69 71 71 72
60 60 61 61 61 60 59 58 58 58 58 58 59 59 56 57 62 69 67 68 70 72 69 68 65 62 58 59 61 58 61 66 67 65 64 66 62 62 63 67 70 72 73 69 68
59 59 60 60 60 60 59 58 58 57 57 58 58 58 55 52 73 71 70 71 71 71 70 69 66 68 62 61 57 63 63 62 65 64 64 63 62 58 65 67 68 69 67 69 68
59 59 58 59 59 58 58 58 58 57 57 58 58 59 54 55 72 69 75 69 72 72 69 73 72 64 63 58 66 63 56 59 61 64 60 64 56 57 65 67 67 65 66 68 67
59 58 58 58 58 57 57 57 55 56 57 58 58 55 49 73 67 72 70 70 73 74 72 73 73 66 60 63 60 55 54 46 59 63 65 60 49 58 64 62 59 63 65 65 65
59 58 57 57 57 56 56 55 55 55 57 58 53 52 51 72 68 73 71 69 70 72 71 78 69 59 60 51 48 51 42 48 54 64 60 55 50 61 64 64 62 62 62 64 63
58 58 57 57 56 55 54 54 56 55 59 62 61 49 59 64 72 74 72 73 67 66 64 61 55 49 48 45 35 43 46 49 49 58 56 52 51 57 64 63 59 56 59 60 57
58 58 57 56 55 53 51 51 48 47 52 52 56 56 66 72 74 69 73 69 66 59 49 55 44 40 46 51 53 53 51 48 52 59 56 53 53 55 60 57 55 58 56 56 55
58 58 57 56 54 53 52 50 53 55 44 59 59 61 67 71 62 67 72 60 57 48 53 49 43 52 57 57 55 52 48 47 53 59 56 51 49 54 56 57 58 58 52 52 52
57 57 57 55 53 51 51 54 62 60 43 55 60 61 62 65 59 61 66 61 55 50 50 46 52 61 58 55 53 50 48 47 48 52 50 48 46 50 57 60 56 54 53 51 49
56 56 54 53 50 51 51 58 61 57 35 49 58 64 67 67 57 67 69 62 55 50 52 50 58 57 54 51 53 44 53 53 50 43 34 46 31 45 53 52 49 49 47 46 46
56 54 52 56 51 49 56 60 57 52 24 58 58 69 66 59 59 60 68 60 51 52 52 47 51 50 49 51 55 47 54 49 47 40 38 42 31 42 51 42 43 44 44 43 44
55 53 53 52 51 53 60 58 55 35 26 52 57 55 54 57 58 59 59 61 59 52 53 51 58 54 52 57 54 55 49 46 43 37 28 39 37 33 36 40 41 43 43 42 40
54 53 53 56 49 58 58 52 35 29 55 50 49 54 52 51 52 54 51 47 42 37 37 47 50 55 59 48 51 47 39 24 23 24 26 44 40 37 40 41 41 40 40 41 39
54 53 53 54 55 55 51 40 29 42 46 57 56 53 47 53 51 52 48 42 49 47 40 35 32 50 55 49 44 43 40 28 22 21 27 41 32 33 41 43 44 42 40 39 37
54 50 47 50 53 53 43 32 34 44 53 52 54 47 46 52 50 49 45 44 49 50 37 37 39 51 54 53 49 42 33 45 34 34 28 32 35 38 41 38 39 39 38 34 33
47 44 44 49 50 46 39 37 41 52 56 55 45 48 42 46 45 44 44 51 50 52 50 42 31 47 51 52 49 44 47 28 28 21 20 28 33 29 30 31 35 35 34 33 32
45 40 44 49 49 39 32 37 46 54 56 52 49 47 48 46 46 42 45 49 51 48 49 44 37 37 46 41 39 40 34 37 34 30 20 15 17 32 28 32 32 35 36 32 31
43 35 45 49 34 33 33 40 49 51 55 52 51 49 46 47 44 44 44 49 52 49 41 43 36 26 35 46 49 44 40 38 22 26 30 28 21 34 31 34 35 35 36 35 32
39 35 44 44 31 31 37 42 46 48 49 47 48 51 49 43 37 44 43 48 49 46 41 42 32 22 28 35 42 36 39 39 37 32 28 19 19 33 34 34 35 32 33 32 31
36 29 34 38 37 36 37 38 40 50 49 49 49 51 45 42 46 40 40 45 46 44 48 43 34 27 23 29 35 30 37 39 35 26 25 23 20 28 32 33 32 31 31 30 29
38 33 36 28 31 35 41 41 39 40 50 51 47 47 43 37 38 37 41 39 43 45 43 37 28 26 31 37 37 34 33 36 29 33 24 23 25 27 31 30 29 30 30 29 27
35 35 37 34 38 35 36 37 39 43 45 45 43 47 45 38 40 37 41 36 34 41 38 38 25 23 19 35 35 30 33 34 31 32 26 26 25 32 32 31 28 27 27 26 25
43 46 41 38 35 33 35 37 39 43 46 50 46 44 41 44 48 46 46 46 43 37 33 31 25 19 19 34 35 24 28 30 33 36 35 28 29 31 28 27 26 26 26 24 25

GFSSW_sfc_temp_126.txt.gz
Temp
62 62 61 61 61 60 60 60 59 59 59 59 59 59 60 59 58 63 61 63 63 67 66 68 69 67 64 60 61 59 48 42 47 51 57 65 63 68 68 65 69 72 70 71 73
62 62 62 61 60 60 60 59 59 59 59 59 59 59 59 59 56 60 67 68 68 68 67 67 65 66 58 58 58 54 46 50 58 57 58 63 55 60 64 63 65 67 70 72 70
62 62 62 62 61 60 60 59 59 59 59 59 59 59 59 58 58 64 67 67 68 68 66 67 67 65 57 56 56 52 49 57 62 63 61 58 59 61 58 55 62 62 65 68 70
61 61 61 61 61 60 59 59 59 59 59 59 59 59 59 57 53 62 68 67 68 67 68 67 64 58 54 53 55 52 60 59 61 63 60 59 62 61 61 63 67 66 66 66 68
60 60 61 61 61 60 59 59 58 58 58 59 59 59 56 56 60 69 68 68 67 68 65 63 60 58 53 56 58 54 57 61 63 61 60 62 58 60 60 65 67 68 69 66 67
59 59 60 60 60 60 59 58 58 58 58 58 59 59 54 50 69 70 67 67 67 65 65 63 62 64 59 57 52 58 58 59 61 61 58 59 59 55 63 65 66 65 65 66 65
59 59 59 59 59 59 59 58 58 57 57 58 59 58 53 56 67 65 70 66 67 66 63 66 66 61 60 57 61 60 54 57 60 58 58 59 53 57 65 62 63 61 62 63 57
59 58 58 58 58 58 58 57 57 57 57 58 58 53 48 68 64 68 67 67 70 70 67 68 67 61 56 60 58 53 51 44 57 59 62 58 47 58 61 59 58 59 63 58 57
59 58 57 57 57 57 56 56 56 56 56 57 51 50 48 68 65 69 68 66 67 68 67 74 63 55 56 47 43 47 39 46 52 61 58 54 49 58 61 62 60 56 58 54 53
58 58 58 56 56 56 55 55 55 55 58 60 59 48 55 62 68 71 67 69 63 62 61 58 52 46 45 41 34 39 41 39 43 55 52 48 47 54 59 59 54 55 51 51 50
58 58 58 57 56 54 52 51 50 49 49 52 53 54 63 68 71 67 70 65 62 55 47 51 43 39 43 46 48 47 45 42 46 54 51 49 43 48 56 53 49 48 48 48 48
58 58 58 57 55 54 53 50 55 56 45 55 56 57 63 66 58 64 69 58 54 46 49 44 39 50 52 52 49 47 44 43 48 54 51 45 46 46 51 46 47 45 43 43 43
57 57 57 55 54 52 52 53 60 61 45 52 57 57 59 61 55 58 63 58 52 47 47 41 48 56 53 49 47 47 44 43 43 47 46 43 42 43 49 48 47 45 44 42 41
56 56 54 53 51 51 50 59 60 57 35 45 51 58 61 61 53 65 65 59 52 48 48 46 54 52 50 48 49 41 50 48 45 40 31 42 28 40 43 41 41 41 39 38 38
56 54 53 56 50 49 54 56 55 52 23 53 54 66 63 56 57 57 64 58 50 49 49 44 46 46 45 48 51 45 50 46 43 36 34 34 30 36 42 36 36 38 38 36 36
55 54 53 51 50 52 58 56 54 34 24 47 54 53 53 55 55 56 56 59 57 50 49 48 52 50 49 53 52 52 45 42 39 35 26 36 33 31 31 35 36 38 38 37 36
54 54 53 55 48 56 54 48 35 28 50 46 47 51 49 48 50 51 49 45 41 36 35 43 46 52 53 44 49 45 36 24 23 23 24 38 33 30 35 38 36 35 35 35 35
54 53 53 53 52 55 49 40 29 39 42 54 51 49 44 48 48 48 45 40 45 42 36 33 31 44 51 45 42 40 38 27 22 22 24 38 28 28 38 40 40 38 35 34 32
54 50 48 51 52 50 43 31 32 39 49 48 51 42 42 48 46 45 42 40 46 45 36 34 36 47 50 50 47 40 32 41 31 30 24 29 29 37 38 36 37 36 34 31 30
44 46 45 50 51 47 39 36 37 49 52 50 41 47 38 43 42 42 41 47 46 49 48 41 31 43 47 49 47 43 45 29 28 22 20 26 27 23 28 32 35 32 30 29 29
42 41 44 50 49 41 32 35 44 52 52 47 44 43 45 42 44 40 42 47 48 46 47 42 36 36 43 39 37 37 32 34 33 30 21 16 16 25 26 29 29 31 31 28 27
42 34 45 49 35 33 32 38 47 48 52 49 49 47 44 45 43 41 41 46 49 47 40 41 33 27 34 43 45 40 37 35 24 27 27 26 22 33 31 31 32 32 34 33 30
38 36 45 45 32 31 35 41 44 46 47 46 45 48 46 41 36 42 42 45 46 43 39 41 31 22 28 33 39 34 36 37 34 29 25 17 18 32 32 30 32 30 31 30 30
36 30 35 38 36 37 34 36 37 47 45 47 46 47 43 41 44 39 38 43 43 42 47 42 32 27 25 29 32 28 34 35 31 21 25 21 18 29 31 31 31 31 29 25 26
37 32 35 30 32 36 38 38 36 38 46 47 43 43 40 36 39 38 38 36 41 45 41 36 29 24 30 34 35 31 31 33 26 32 24 22 25 25 30 29 31 27 28 27 26
33 33 34 31 38 35 37 36 36 39 40 41 40 44 43 38 40 35 35 34 33 38 35 35 25 21 15 34 32 27 32 32 31 31 25 23 26 29 29 29 27 27 26 25 25
41 40 37 34 34 33 34 36 37 40 42 46 42 41 40 43 45 44 44 42 40 35 32 29 24 18 16 32 31 24 27 28 27 32 33 26 30 28 27 28 26 26 26 24 24

GFSSW_sfc_temp_129.txt.gz
Temp
62 62 62 61 61 60 60 60 59 59 59 60 59 59 60 59 58 61 61 64 63 67 66 66 65 65 62 58 58 55 46 40 45 48 54 63 62 65 64 62 66 68 65 69 73
62 62 62 62 61 60 60 59 59 59 59 59 59 59 59 59 55 60 67 68 67 67 66 63 62 62 56 54 56 52 43 47 55 55 57 59 58 61 61 60 62 63 66 69 68
62 62 62 62 61 60 60 59 59 59 59 59 59 59 59 57 59 63 67 67 68 67 63 63 63 59 53 54 51 47 46 53 57 58 58 55 55 59 59 54 61 62 65 64 65
61 61 61 61 61 60 60 59 59 59 59 59 59 59 59 57 51 63 68 68 68 65 65 63 61 55 50 49 52 48 55 56 58 58 55 55 59 57 59 62 67 66 65 63 64
60 60 61 61 61 60 59 59 59 59 58 59 59 59 58 55 59 68 68 68 66 66 63 60 58 54 49 52 54 50 53 57 59 58 56 57 56 57 60 64 64 65 65 63 56
59 59 60 60 60 60 59 59 58 58 58 58 59 59 54 50 68 68 66 65 64 62 60 61 57 59 53 52 49 54 54 55 56 57 56 55 55 54 62 61 65 65 59 55 54
59 59 59 59 60 59 59 59 58 57 57 58 59 57 51 55 65 63 66 62 64 64 59 62 61 58 57 53 57 56 50 53 55 53 53 57 51 54 61 60 62 61 53 52 51
59 59 58 58 58 58 58 57 57 57 57 57 58 52 48 67 62 64 62 64 68 65 64 65 62 57 54 57 55 50 46 42 54 57 56 53 46 57 61 58 59 48 49 48 48
59 58 57 57 57 57 57 57 56 56 57 57 51 49 47 66 62 67 67 64 65 64 62 71 60 52 54 44 41 42 36 41 48 56 55 53 48 58 59 59 55 48 47 47 45
58 58 57 56 56 56 55 55 55 56 58 60 58 48 54 59 64 66 63 65 61 59 59 55 48 44 42 39 33 36 37 34 39 51 50 45 45 53 50 48 45 44 44 43 42
58 58 58 57 56 54 54 53 51 49 50 52 51 54 61 66 66 65 67 63 60 54 45 48 41 38 41 44 45 43 40 38 41 50 46 45 43 45 45 43 40 40 40 40 40
57 57 57 57 55 54 54 50 53 52 44 53 54 54 60 62 55 61 66 56 52 45 46 42 38 48 49 48 45 43 39 39 44 49 47 41 40 37 41 40 39 38 37 37 38
57 57 57 56 54 53 52 51 59 57 46 50 55 54 57 59 54 55 62 55 50 46 45 40 46 52 48 45 43 42 39 39 41 43 43 39 37 38 41 42 42 39 38 37 36
56 56 54 54 52 51 50 54 59 56 35 42 48 54 58 58 51 62 64 57 50 46 45 43 50 49 46 44 45 37 47 46 42 38 31 39 27 38 37 36 37 36 34 33 34
56 55 53 57 49 49 54 57 56 54 22 49 51 63 58 53 54 54 61 55 46 46 46 42 45 43 42 45 48 43 48 45 42 34 31 31 28 29 36 32 33 34 34 33 33
55 54 54 52 51 49 52 54 54 34 23 44 52 49 48 51 52 54 54 57 54 47 46 45 49 48 47 50 50 50 43 39 35 33 26 33 31 28 30 32 33 35 34 33 32
54 54 54 54 49 51 52 48 34 27 46 43 45 49 47 46 48 49 47 44 40 36 34 41 44 48 51 43 45 42 36 25 23 23 24 35 30 32 32 35 35 33 32 31 31
54 53 54 53 50 52 50 40 29 38 39 50 48 46 43 46 46 46 43 39 43 40 34 32 31 42 47 43 40 37 36 27 22 21 26 35 27 30 36 38 37 35 33 32 30
53 50 48 51 52 50 43 32 32 38 46 46 48 41 40 45 45 43 40 38 43 44 35 31 33 45 47 46 45 38 32 37 31 29 23 27 29 34 35 34 35 33 31 28 27
47 46 45 50 51 47 40 36 37 46 49 48 41 44 37 41 40 40 38 45 44 46 45 39 31 41 45 46 44 41 44 29 28 22 21 25 27 25 27 31 33 30 27 27 26
44 40 45 50 49 41 33 37 41 48 50 45 42 41 42 40 41 38 41 45 46 44 46 41 36 35 41 37 36 36 32 34 33 29 21 21 18 26 28 30 29 29 28 25 25
42 33 45 48 36 34 33 40 45 46 49 47 46 45 42 43 40 39 39 45 46 45 40 41 34 27 34 41 41 38 35 34 24 26 27 25 25 33 28 29 30 30 31 29 25
38 36 45 45 32 31 35 39 42 42 44 44 43 46 45 41 36 40 40 43 43 41 39 40 31 22 29 33 37 33 35 36 33 28 25 17 21 31 29 29 30 27 28 26 26
36 31 36 39 34 36 34 36 38 44 43 45 44 45 41 38 42 37 37 41 42 41 46 42 32 28 27 30 32 28 33 35 31 20 25 24 24 27 27 26 27 27 27 24 24
37 32 34 29 33 36 36 36 36 36 43 45 41 41 38 34 36 35 36 37 40 43 39 36 30 24 30 33 33 31 30 32 26 31 22 28 26 26 29 28 27 27 26 25 24
33 33 32 30 35 34 36 35 34 37 39 39 36 41 40 36 37 33 36 35 37 39 36 34 25 20 16 32 32 27 30 31 28 29 27 24 29 30 29 28 26 26 26 25 25
41 39 35 33 31 33 34 36 36 37 40 43 40 38 37 40 43 44 46 44 42 36 32 29 21 17 18 29 29 21 28 28 27 31 31 26 31 27 26 28 26 25 26 24 25

GFSSW_sfc_temp_132.txt.gz
Temp
62 62 62 61 61 60 60 60 59 59 60 60 60 60 60 60 59 60 60 62 63 66 66 64 64 62 60 57 57 53 44 40 42 47 51 59 60 62 63 59 63 65 65 68 69
62 62 62 62 61 60 60 60 59 59 59 59 59 60 60 59 56 58 66 68 68 68 65 63 61 61 55 53 54 50 42 44 51 51 51 57 52 58 58 59 59 60 66 69 68
62 62 62 62 61 60 60 59 59 59 59 59 59 60 59 57 59 60 67 67 68 67 61 61 61 58 52 51 50 45 45 49 54 53 53 50 53 56 54 52 61 60 62 63 57
61 61 62 62 61 61 60 59 59 59 59 59 59 60 59 57 51 61 68 68 68 64 63 60 59 52 48 46 49 45 51 51 53 55 53 51 55 56 56 61 64 62 58 55 53
60 60 61 61 61 60 59 59 59 59 58 59 59 60 58 54 57 66 68 68 64 65 60 58 56 51 46 48 51 46 50 54 55 55 53 56 54 56 59 62 62 55 54 51 51
59 59 60 60 60 60 59 59 58 58 58 58 59 59 54 49 65 66 64 65 62 61 59 60 56 55 51 49 47 50 50 52 53 54 52 52 53 50 57 60 51 50 48 48 47
59 59 59 59 60 59 59 59 58 57 57 58 59 56 51 55 63 60 64 59 61 62 59 61 59 55 52 49 54 52 47 50 50 50 50 53 48 49 56 50 47 45 46 46 45
58 59 58 58 58 58 58 58 57 57 57 58 58 51 48 64 60 62 60 62 64 63 61 61 61 55 52 53 51 45 44 40 50 53 54 51 44 52 53 47 42 44 44 43 43
58 58 58 57 56 57 57 57 57 57 57 57 52 48 48 65 59 64 64 61 63 63 60 69 58 50 51 43 39 40 34 37 46 53 51 50 46 48 49 48 43 41 41 42 41
58 58 57 57 56 55 56 56 56 56 57 59 57 47 55 58 62 63 60 65 59 59 56 54 47 41 39 38 32 33 34 31 36 47 47 42 45 43 44 42 39 37 37 38 38
57 58 57 57 56 54 54 53 50 48 51 51 51 52 57 64 65 61 64 61 59 55 44 46 41 37 41 42 43 41 37 35 39 47 43 43 42 36 41 38 35 35 35 36 37
57 57 57 57 56 55 55 51 53 51 43 52 52 52 58 60 53 59 65 55 52 45 46 42 38 46 47 45 43 40 36 36 41 46 44 41 38 33 37 36 36 35 33 34 35
57 57 57 56 54 53 53 54 59 57 46 49 52 52 56 57 51 56 60 54 48 44 42 39 45 49 47 43 41 38 37 37 39 41 40 37 35 34 38 38 39 37 35 35 33
57 55 54 54 52 52 51 55 59 56 35 41 46 51 55 57 49 60 61 56 47 44 43 41 48 46 42 42 42 33 44 43 40 36 30 36 27 34 34 34 35 34 32 31 32
55 55 53 57 48 48 52 57 55 50 22 47 48 59 56 51 52 52 58 54 44 45 44 41 42 41 40 42 45 41 45 41 39 33 30 30 27 27 33 31 32 32 33 31 31
55 54 54 52 48 48 51 53 51 33 23 42 49 47 46 48 49 51 52 56 52 46 43 44 47 47 46 48 47 47 42 38 33 31 24 31 30 27 28 33 32 33 32 31 30
55 54 53 54 48 49 51 48 35 27 44 40 42 45 43 43 45 46 46 43 39 34 34 40 43 47 50 42 44 41 35 24 23 22 24 33 28 33 32 35 36 34 30 29 29
54 53 53 51 49 51 50 40 27 36 37 47 45 43 40 44 44 44 42 38 41 41 33 32 31 42 46 43 40 37 35 26 21 20 25 32 26 31 34 36 36 34 31 30 28
53 51 49 50 50 50 44 32 31 36 43 43 44 38 38 43 43 42 39 38 43 44 36 32 33 43 46 46 44 37 31 37 31 28 22 28 30 32 33 32 32 31 31 27 26
46 46 46 51 51 47 40 36 36 43 46 45 39 42 35 39 39 39 38 44 43 45 46 39 32 39 43 45 42 39 42 28 26 21 20 25 26 29 27 30 32 29 27 26 25
44 40 46 50 50 41 33 36 40 45 47 43 40 40 40 39 39 36 40 44 44 42 44 39 36 35 40 37 35 35 32 33 32 28 21 20 21 26 27 31 31 29 28 25 23
42 33 45 49 36 35 33 39 44 44 48 45 44 43 41 42 39 38 38 42 44 43 39 41 35 28 34 38 39 37 34 33 22 26 26 24 26 31 27 27 30 28 28 26 24
39 36 45 44 32 33 37 39 43 41 43 43 42 44 44 40 35 39 39 41 41 41 39 40 33 23 29 32 35 33 34 34 32 29 27 17 23 31 29 28 29 26 27 26 25
36 31 36 39 37 35 35 37 37 43 42 44 42 44 41 38 41 37 36 40 41 40 46 43 34 28 27 31 31 29 32 33 32 22 28 27 28 29 27 27 27 26 25 23 23
37 33 34 30 34 35 37 36 36 36 42 44 40 40 38 35 36 35 35 35 39 43 39 38 32 25 30 34 32 32 31 31 27 33 24 28 27 35 30 29 28 26 25 24 23
33 33 31 30 35 34 37 34 34 38 37 37 36 40 40 35 37 33 36 35 35 36 35 35 26 22 19 32 31 27 28 29 30 30 28 27 28 36 32 28 26 26 25 24 24
38 37 36 33 32 32 34 35 35 37 39 42 39 38 35 38 41 43 43 42 40 36 34 31 27 25 21 29 29 21 23 27 26 29 30 25 32 28 26 28 26 24 26 25 26

GFSSW_sfc_temp_135.txt.gz
Temp
62 62 62 61 61 61 61 60 59 59 60 60 60 60 61 60 59 67 68 69 69 67 67 70 72 70 71 69 68 66 61 55 55 57 61 68 66 73 73 72 73 74 74 71 71
62 62 62 62 61 61 60 60 59 59 59 59 59 60 60 59 62 66 70 68 68 68 71 69 69 69 68 66 66 64 59 56 61 63 62 64 64 67 69 68 70 72 74 66 66
62 62 62 62 61 61 60 60 59 59 59 59 59 60 59 60 64 69 68 68 68 68 70 69 69 68 64 65 62 59 59 60 62 64 64 64 65 68 66 66 68 66 61 60 61
62 62 62 62 62 61 60 59 59 59 59 59 60 60 59 64 56 69 68 68 69 71 70 68 67 63 60 59 61 59 60 61 63 63 62 62 66 65 66 59 59 58 58 57 55
60 60 61 61 61 61 60 59 59 59 59 59 60 60 63 59 62 70 69 70 72 71 67 66 63 61 58 59 60 58 59 61 63 61 62 62 62 63 59 56 57 56 55 53 52
59 59 60 60 61 60 60 59 59 58 58 59 59 59 60 53 71 69 69 71 70 70 68 67 64 64 60 58 58 59 59 60 61 63 61 60 61 63 54 56 53 52 50 50 50
59 59 59 59 59 59 59 59 58 58 58 58 59 59 54 58 68 68 68 68 70 70 66 68 68 65 62 58 61 59 56 59 61 62 62 62 60 51 53 54 51 50 49 49 48
58 58 58 58 58 58 58 58 58 58 58 58 59 57 52 67 67 66 67 68 69 70 69 70 69 64 61 62 58 55 53 52 60 60 60 61 53 51 52 52 48 48 47 47 46
57 57 57 57 56 56 56 57 57 57 57 58 56 54 53 67 63 68 69 66 67 68 68 70 65 57 59 53 51 49 48 47 53 57 59 59 53 49 53 50 47 46 46 47 46
57 57 57 57 57 55 55 56 56 57 58 60 58 51 60 60 66 67 67 68 65 64 62 60 55 52 51 51 44 44 45 45 47 55 56 54 54 47 47 48 45 45 45 45 45
57 57 57 57 56 54 54 53 51 50 53 53 54 55 58 64 67 66 67 66 64 61 53 53 52 47 49 49 50 48 46 44 48 54 51 52 52 50 45 45 43 43 43 44 44
57 57 57 57 55 55 56 52 53 56 48 54 54 54 59 62 56 62 68 60 57 51 52 50 46 52 52 50 49 46 43 44 48 51 50 51 50 46 45 43 43 42 41 42 43
56 57 57 56 55 54 54 55 60 59 47 51 54 54 57 60 55 58 63 58 54 49 48 47 51 51 50 48 46 45 43 43 46 50 51 48 48 44 43 43 42 41 41 40 40
56 56 54 54 52 54 52 59 59 59 41 44 49 54 56 58 51 64 66 61 53 50 48 47 52 49 48 47 48 42 50 48 46 44 41 47 38 46 43 43 43 42 41 40 39
55 55 53 56 51 51 56 59 58 54 28 49 48 62 57 54 55 55 62 59 51 48 50 47 47 45 44 47 50 46 50 48 47 45 41 42 41 42 40 43 44 43 41 39 38
55 55 54 52 52 54 55 57 55 38 27 44 50 48 48 51 53 56 56 59 57 50 49 49 54 52 52 51 51 52 48 44 41 42 35 43 42 45 43 45 42 43 41 38 37
55 55 54 55 51 52 53 50 36 29 46 42 44 47 46 45 48 50 48 46 44 38 39 45 47 52 53 48 50 48 44 35 34 32 33 39 37 44 46 43 44 44 40 38 37
55 54 54 53 52 52 51 41 27 38 38 49 47 45 43 47 47 47 45 43 47 45 39 38 37 46 50 49 45 43 44 35 26 28 35 38 35 44 43 43 42 41 40 37 36
54 51 50 51 50 51 45 32 35 38 44 44 46 42 41 46 46 46 44 43 47 47 42 37 39 49 50 50 50 41 39 44 38 34 31 39 41 42 39 39 39 39 37 36 34
47 46 47 51 51 48 40 36 39 46 48 48 41 44 38 41 42 43 41 47 46 48 51 43 37 45 47 51 48 46 48 36 36 27 25 35 37 37 36 40 39 38 37 35 33
45 40 46 51 50 42 33 38 42 47 48 45 43 42 43 40 43 40 42 46 48 46 49 45 43 40 45 43 43 42 39 38 39 36 29 27 32 37 36 40 40 39 38 34 32
43 34 46 50 37 35 34 41 46 45 48 47 47 45 44 43 41 41 41 44 45 47 44 46 41 35 40 43 45 44 42 42 34 33 34 32 31 39 38 36 39 39 37 35 32
38 37 45 46 32 32 39 39 44 43 44 44 44 46 47 43 39 42 43 43 44 45 43 44 39 33 35 40 42 40 41 40 38 36 33 28 31 36 35 37 38 37 36 34 32
36 31 37 39 39 38 36 37 37 45 44 46 45 47 44 42 44 40 40 43 44 43 46 46 39 34 34 37 39 35 37 39 39 32 35 33 34 39 41 38 37 35 35 33 32
37 33 37 30 34 36 39 39 37 37 45 46 42 43 41 37 39 38 40 41 43 45 43 43 37 30 35 38 39 37 37 37 33 38 32 35 35 39 41 41 39 37 32 30 29
33 34 34 34 38 36 37 36 37 39 39 38 39 42 41 38 41 36 39 39 40 41 40 39 32 29 25 35 36 32 35 36 34 35 33 32 33 44 44 38 35 33 31 30 29
40 40 39 35 35 33 34 37 37 41 41 44 42 40 39 41 44 45 46 46 45 41 37 36 30 30 29 34 34 28 32 32 36 37 37 31 41 41 36 35 33 31 31 30 30